www.pogodaiklimat.ru

Погода и климат >> Архив погоды >> Бельгия >> Chievres


ПОГОДА в Chievres

  • Прогноз погоды в Chievres
  • Монитор погоды в Chievres
  • Климат города

АРХИВ ПОГОДЫ в Chievres

Время (UTC), дата Ветер
(напр.,м/с)
 
Видим.   Явления Облачность Т
(С)
Тd
(С)
f
(%)
Тe
(С)
Тes
(С)
Комфортность P
(гПа)
Po
(гПа)
Тmin
(С)
Tmax
(С)
R
(мм)
R24
(мм)
S
(см)
10 11.10 Ю 6
{9}
20 км н/о +21.4 +13.8 62 +24 +24 комфорт 1010.1 1003.2
11 11.10 Ю 7
{12}
20 км н/о +22.4 +13.2 56 +25 +25 комфорт 1010.0 1003.2
12 11.10 Ю 6
{12}
20 км {дождь} н/о +23.1 +13.7 55 +26 +26 жарко 1009.7 1002.8 0.1
13 11.10 Ю 6
{9}
20 км н/о +22.9 +13.9 57 +26 +26 жарко 1009.5 1002.7
14 11.10 Ю 6
{9}
20 км н/о +23.4 +14.0 56 +27 +27 душно 1009.5 1002.7
15 11.10 Ю 7
{9}
20 км н/о +23.2 +13.8 55 +27 +27 душно 1009.6 1002.7
16 11.10 Ю 5
{9}
20 км н/о +22.1 +14.2 61 +25 +25 комфорт 1009.7 1003.0
17 11.10 Ю 4
{6}
20 км н/о +21.1 +14.2 65 +24 +24 комфорт 1010.3 1003.6
18 11.10 ЮВ 4
{9}
20 км н/о +20.1 +14.1 68 +22 +22 комфорт 1010.7 1003.7 +23.8 0.1
19 11.10 ЮВ 5
{6}
20 км н/о +20.1 +13.8 67 +22 +22 комфорт 1010.3 1003.5
20 11.10 ЮВ 4
{7}
20 км н/о +19.9 +13.5 67 +22 +22 комфорт 1010.6 1003.7
21 11.10 Ю 2
{7}
20 км {дождь} н/о +17.7 +15.0 84 +18 +18 1011.3 1004.3
22 11.10 Ю 2
{6}
20 км {дождь} н/о +17.3 +15.1 87 +18 +18 1012.2 1005.2
23 11.10 Ю 5
{7}
20 км н/о +16.8 +14.3 85 +16 +16 1013.2 1006.2
00 12.10 Ю 4
{7}
20 км {дождь} н/о +15.8 +13.3 85 +15 +15 1014.0 1006.8 2
01 12.10 Ю 5
{7}
20 км н/о +15.5 +13.1 86 +14 +14 1014.5 1007.5
02 12.10 Ю 4
{7}
20 км н/о +14.6 +12.8 89 +13 +13 1014.7 1007.6
03 12.10 Ю 4
{7}
20 км н/о +13.9 +12.4 91 +12 +12 1015.3 1008.2
04 12.10 Ю 3
{5}
20 км н/о +13.3 +12.3 94 +12 +12 1015.7 1008.7
05 12.10 Ю 3
{5}
20 км н/о +14.1 +13.1 94 +13 +13 1016.2 1009.1
06 12.10 Ю 4
{7}
17 км н/о +13.6 +12.9 96 +12 +12 1016.8 1009.7 +13.3 2
07 12.10 Ю 4
{6}
20 км н/о +15.7 +14.3 91 +15 +15 1017.3 1010.2
08 12.10 Ю 5
{8}
20 км н/о +16.8 +14.7 87 +16 +16 1017.8 1010.8
09 12.10 Ю 6
{10}
19 км н/о +17.7 +15.3 86 +17 +17 1018.2 1011.2
10 12.10 Ю 5
{9}
20 км н/о +19.0 +15.5 80 +20 +20 1018.2 1011.3
11 12.10 Ю 6
{9}
20 км н/о +20.4 +15.7 74 +23 +23 комфорт 1018.2 1011.2
12 12.10 Ю 5
{10}
19 км н/о +21.4 +15.3 68 +25 +25 комфорт 1017.8 1011.0
13 12.10 Ю 7
{10}
20 км н/о +22.3 +16.0 68 +26 +26 жарко 1017.8 1011.0
14 12.10 Ю 7
{11}
20 км н/о +23.0 +16.7 68 +28 +28 душно 1017.8 1011.1
15 12.10 Ю 8
{11}
20 км н/о +22.8 +15.9 65 +27 +27 душно 1018.0 1011.2
16 12.10 Ю 5
{10}
20 км н/о +22.3 +16.1 68 +26 +26 жарко 1018.0 1011.1
17 12.10 Ю 5
{7}
20 км н/о +21.6 +15.4 68 +25 +25 комфорт 1018.0 1011.1
18 12.10 Ю 4
{11}
20 км н/о +19.8 +15.3 75 +22 +22 комфорт 1018.7 1011.7 +23.3
19 12.10 Ю 4
{6}
20 км н/о +19.5 +15.3 77 +21 +21 комфорт 1019.0 1012.1
20 12.10 Ю 5
{7}
20 км н/о +19.9 +15.1 74 +22 +22 комфорт 1019.1 1012.1
21 12.10 Ю 4
{7}
20 км н/о +19.5 +15.1 76 +21 +21 комфорт 1019.3 1012.3
22 12.10 Ю 3
{5}
20 км н/о +19.2 +14.9 76 +21 +21 комфорт 1019.1 1012.1
23 12.10 Ю 4
{5}
20 км н/о +18.5 +14.8 79 +19 +19 1019.0 1012.1
00 13.10 Ю 4
{7}
20 км н/о +18.4 +14.4 78 +19 +19 1018.5 1011.6
01 13.10 Ю 3
{6}
20 км н/о +16.3 +14.0 86 +16 +16 1019.2 1012.2
02 13.10 Ю 3
{4}
20 км н/о +17.5 +14.3 81 +18 +18 1019.2 1012.2
03 13.10 Ю 4
{6}
20 км н/о +17.4 +14.2 81 +17 +17 1018.8 1011.8
04 13.10 Ю 4
{6}
20 км н/о +17.4 +14.2 81 +17 +17 1018.7 1011.7
05 13.10 Ю 5
{7}
20 км н/о +17.2 +14.1 82 +17 +17 1018.2 1011.2
06 13.10 ЮВ 5
{7}
20 км н/о +16.8 +13.9 83 +16 +16 1018.1 1011.1 +16.2
07 13.10 Ю 6
{8}
20 км н/о +16.8 +13.9 83 +16 +16 1018.3 1011.3
08 13.10 Ю 4
{8}
20 км н/о +18.5 +14.3 77 +19 +19 1018.6 1011.6
09 13.10 Ю 4
{8}
20 км н/о +20.5 +15.1 71 +23 +23 комфорт 1018.2 1011.2
10 13.10 Ю 5
{7}
20 км н/о +22.5 +15.9 66 +27 +27 душно 1017.7 1010.8
11 13.10 Ю 5
{7}
20 км н/о +23.2 +15.8 63 +28 +28 душно 1017.2 1010.3
12 13.10 Ю 5
{8}
20 км н/о +24.3 +15.9 59 +27 +27 жарко 1016.3 1009.6
13 13.10 Ю 5
{7}
20 км н/о +24.6 +15.2 56 +28 +28 душно 1015.2 1008.5
14 13.10 Ю 5
{8}
20 км н/о +24.8 +15.2 55 +28 +28 жарко 1014.8 1008.1
15 13.10 Ю 4
{8}
20 км н/о +24.5 +15.6 58 +28 +28 душно 1014.2 1007.5
16 13.10 Ю 4
{8}
20 км н/о +22.5 +15.0 63 +26 +26 жарко 1013.7 1006.8
17 13.10 Ю 4
{5}
20 км н/о +21.7 +14.6 64 +25 +25 комфорт 1013.5 1006.7
18 13.10 ЮВ 3
{8}
20 км н/о +20.5 +14.4 68 +23 +23 комфорт 1013.2 1006.5 +25.1
19 13.10
{5}
20 км н/о +18.7 +14.2 75 1013.3 1006.5
20 13.10 ЮВ 3
{4}
20 км н/о +17.0 +13.9 82 +17 +17 1013.2 1006.2
21 13.10 ЮВ 3
{5}
20 км н/о +17.8 +13.8 77 +18 +18 1012.8 1005.8
22 13.10 ЮВ 4
{6}
20 км н/о +18.5 +13.7 74 +19 +19 1012.3 1005.5
23 13.10 Ю 2
{6}
20 км н/о +17.6 +13.3 76 +18 +18 1012.2 1005.2
00 14.10 Ю 2
{6}
20 км н/о +16.6 +12.9 79 +17 +17 1011.3 1004.3
01 14.10 ЮВ 3
{5}
20 км н/о +17.5 +12.8 74 +18 +18 1010.8 1003.8
02 14.10 ЮВ 4
{6}
20 км н/о +17.3 +12.5 73 +17 +17 1009.8 1003.0
03 14.10 Ю 4
{6}
20 км н/о +16.9 +12.1 73 +16 +16 1009.5 1002.5
04 14.10 ЮВ 4
{8}
20 км н/о +16.7 +11.7 72 +16 +16 1009.2 1002.2
05 14.10 Ю 5
{7}
20 км н/о +16.2 +11.3 73 +15 +15 1008.6 1001.7
06 14.10 Ю 5
{8}
20 км н/о +16.0 +11.2 73 +15 +15 1008.5 1001.5 +15.8
07 14.10 ЮВ 4
{6}
20 км н/о +16.1 +11.4 74 +15 +15 1008.2 1001.3
08 14.10 Ю 4
{8}
20 км н/о +17.7 +11.9 69 +17 +17 1008.5 1001.5
09 14.10 Ю 6
{9}
20 км н/о +19.3 +11.6 61 +20 +20 1008.1 1001.2
10 14.10 Ю 7
{11}
20 км н/о +20.7 +11.3 55 +22 +22 комфорт 1007.5 1000.6
11 14.10 Ю 8
{11}
18 км н/о +22.4 +11.6 50 +25 +25 комфорт 1007.5 1000.6
12 14.10 Ю 8
{11}
20 км н/о +22.8 +11.1 48 +25 +25 комфорт 1006.8 1000.1
13 14.10 Ю 7
{11}
20 км н/о +23.4 +10.8 45 +26 +26 жарко 1006.6 999.8
14 14.10 Ю 6
{10}
20 км н/о +23.4 +10.9 45 +26 +26 жарко 1006.7 999.9
15 14.10 Ю 6
{11}
20 км н/о +23.2 +10.8 46 +25 +25 комфорт 1006.6 999.8
16 14.10 Ю 5
{10}
20 км н/о +22.4 +11.3 49 +25 +25 комфорт 1006.7 999.9
17 14.10 ЮВ 3
{5}
20 км н/о +20.8 +11.1 54 +23 +23 комфорт 1006.7 1000.0
18 14.10 ЮВ 2
{11}
20 км н/о +19.5 +11.0 58 +21 +21 комфорт 1007.1 1000.2 +23.8
19 14.10 ЮВ 3
{5}
20 км н/о +19.1 +10.8 59 +20 +20 1007.2 1000.3
20 14.10 ЮВ 3
{5}
20 км н/о +18.9 +10.5 58 +20 +20 1007.6 1000.7
21 14.10 ЮВ 4
{6}
20 км н/о +18.5 +10.3 59 +19 +19 1007.8 1001.0
22 14.10 Ю 3
{6}
20 км н/о +18.3 +10.2 59 +19 +19 1008.0 1001.1
23 14.10 Ю 5
{7}
20 км н/о +19.0 +10.0 56 +19 +19 1008.0 1001.1
00 15.10 ЮВ 3
{7}
20 км н/о +17.8 +9.9 60 +18 +18 1008.5 1001.6
01 15.10 ЮВ 3
{5}
20 км н/о +17.0 +9.8 63 +17 +17 1008.7 1001.7
02 15.10 ЮВ 3
{5}
20 км н/о +16.7 +9.5 62 +17 +17 1008.7 1001.7
03 15.10 Ю 4
{6}
20 км н/о +16.9 +9.3 61 +16 +16 1008.7 1001.7
04 15.10 Ю 4
{6}
20 км н/о +17.6 +10.0 61 +17 +17 1008.7 1001.8
05 15.10 Ю 4
{7}
20 км н/о +18.1 +10.4 61 +18 +18 1009.2 1002.3
06 15.10 Ю 5
{7}
20 км н/о +17.7 +10.4 62 +17 +17 1009.7 1002.8 +15.4
07 15.10 Ю 4
{7}
20 км н/о +18.0 +10.4 61 +18 +18 1010.2 1003.3
08 15.10 Ю 3
{5}
20 км н/о +19.0 +10.8 59 +20 +20 1011.0 1004.1
09 15.10 Ю 4
{7}
20 км н/о +19.9 +10.8 56 +21 +21 комфорт 1011.5 1004.6
10 15.10 Ю 5
{7}
20 км н/о +20.4 +10.3 52 +22 +22 комфорт 1012.1 1005.2
11 15.10 Ю 5
{8}
20 км н/о +22.3 +11.0 49 +24 +24 комфорт 1012.1 1005.2
12 15.10 ЮЗ 5
{8}
20 км н/о +22.9 +11.0 47 +25 +25 комфорт 1012.0 1005.1
13 15.10 Ю 5
{7}
20 км н/о +23.9 +10.2 42 +25 +25 комфорт 1012.1 1005.2
14 15.10 ЮЗ 4
{6}
20 км н/о +24.0 +10.1 41 +25 +25 комфорт 1012.2 1005.3
15 15.10 ЮЗ 3
{7}
20 км н/о +24.3 +10.5 42 +25 +25 комфорт 1012.6 1005.7
16 15.10 ЮЗ 2
{6}
20 км н/о +22.9 +11.8 50 +25 +25 комфорт 1013.0 1006.2
17 15.10
{3}
20 км н/о +19.2 +11.3 60 1013.6 1006.6
18 15.10
{7}
1600 м дымка н/о +15.8 +11.3 75 1014.3 1007.3 +24.3
19 15.10
{2}
4500 м н/о +15.4 +11.1 76 1014.7 1007.7
20 15.10
{2}
12 км н/о +12.9 +10.2 84 1015.0 1007.8
21 15.10
{2}
14 км н/о +11.8 +9.0 83 1015.5 1008.3
22 15.10
{2}
15 км н/о +11.3 +8.6 83 1015.7 1008.6
23 15.10
{1}
13 км н/о +11.3 +8.7 84 1016.1 1008.8
00 16.10
{2}
7000 м н/о +10.6 +8.5 87 1016.3 1009.2
01 16.10 З 2
{7}
14 км н/о +12.2 +8.9 80 +11 +11 1017.1 1010.0
02 16.10 ЮВ 2
{3}
14 км н/о +10.9 +8.2 83 +10 +10 1017.0 1009.7
03 16.10
{7}
13 км н/о +10.3 +8.0 86 1017.1 1010.0
04 16.10
{1}
12 км н/о +10.6 +7.7 82 1017.5 1010.2
05 16.10
{1}
10 км н/о +9.5 +8.0 90 1017.6 1010.3
06 16.10
{7}
12 км н/о +8.8 +6.7 87 1017.8 1010.6 +8.8
07 16.10
{2}
14 км н/о +10.6 +8.1 85 1018.2 1011.1
08 16.10
{1}
10 км н/о +14.5 +10.6 77 1018.6 1011.5
09 16.10
{3}
20 км н/о +19.1 +10.7 58 1018.5 1011.6
10 16.10
{1}
20 км н/о +22.0 +10.9 49 1018.7 1011.7
11 16.10
{2}
19 км н/о +23.1 +10.0 43 1018.2 1011.3
12 16.10
{3}
20 км н/о +24.5 +8.6 36 1018.2 1011.3
13 16.10
{3}
20 км н/о +24.9 +8.8 36 1018.0 1011.1
14 16.10
{3}
18 км н/о +24.8 +9.1 37 1018.0 1011.2
15 16.10 Ю 2
{4}
20 км н/о +24.0 +10.1 41 +25 +25 комфорт 1017.7 1010.8
16 16.10 Ю 2
{3}
20 км н/о +22.5 +11.7 50 +25 +25 комфорт 1017.8 1011.0
17 16.10
{3}
20 км н/о +19.2 +11.2 60 1018.1 1011.2
18 16.10
{4}
19 км н/о +17.2 +10.4 64 1018.6 1011.6 +25.2
19 16.10 Ю 2
{2}
19 км н/о +17.0 +10.3 65 +17 +17 1018.7 1011.7
20 16.10 ЮЗ 2
{4}
13 км н/о +14.3 +9.9 75 +14 +14 1019.0 1011.8
21 16.10
{4}
14 км н/о +13.3 +10.2 81 1019.0 1011.8
22 16.10
{2}
10 км н/о +13.2 +9.5 78 1018.7 1011.7
23 16.10
{1}
11 км н/о +11.3 +9.0 86 1018.7 1011.5
00 17.10
{6}
8000 м н/о +12.0 +9.3 84 1019.2 1012.1
01 17.10
{1}
7000 м н/о +11.4 +9.9 90 1019.2 1012.1
02 17.10 нст 1
{2}
3600 м дымка н/о +9.9 +9.1 95 +9 +9 1019.2 1012.0
03 17.10
{2}
3300 м дымка н/о +8.8 +8.0 95 1019.2 1011.8
04 17.10
{1}
2200 м дымка н/о +8.8 +8.0 95 1019.2 1012.1
05 17.10
{1}
1800 м дымка н/о +8.8 +8.1 95 1019.5 1012.2
06 17.10
{2}
2100 м дымка н/о +8.6 +7.8 95 1019.8 1012.6 +8.1
07 17.10
{1}
<100 м туман н/о +8.8 +8.6 99 1020.2 1013.0
08 17.10
{1}
1500 м дымка н/о +11.1 +10.4 95 1020.2 1013.1
09 17.10
{1}
3500 м дымка н/о +15.4 +12.8 84 1020.2 1013.2
10 17.10
{2}
8000 м н/о +16.6 +13.6 82 1020.3 1013.2
11 17.10
{2}
13 км н/о +18.2 +12.4 69 1020.0 1013.0
12 17.10
{2}
19 км н/о +19.1 +11.9 63 1019.7 1012.7
13 17.10
{3}
16 км н/о +19.1 +12.3 65 1019.5 1012.6
14 17.10 С 3
{3}
18 км н/о +19.4 +12.6 65 +21 +21 комфорт 1019.5 1012.5
15 17.10 СЗ 3
{4}
20 км н/о +18.8 +12.1 65 +20 +20 1019.6 1012.6
16 17.10 С 2
{4}
20 км н/о +18.3 +12.2 68 +19 +19 1019.6 1012.6
17 17.10 С 3
{3}
16 км н/о +15.6 +11.7 78 +15 +15 1020.0 1012.8
18 17.10 С 3
{5}
10 км н/о +14.5 +12.0 85 +14 +14 1020.7 1013.7 +20.5
19 17.10 С 3
{5}
14 км н/о +14.1 +11.4 84 +13 +13 1021.2 1014.1
20 17.10 С 2
{4}
13 км н/о +12.5 +10.5 88 +12 +12 1021.8 1014.7
21 17.10 С 2
{5}
11 км н/о +11.6 +10.0 90 +10 +10 1022.2 1015.2
22 17.10 С 2
{2}
10 км н/о +12.6 +11.1 91 +12 +12 1022.7 1015.5
23 17.10 С 2
{4}
9000 м н/о +12.3 +10.7 90 +11 +11 1022.7 1015.6
00 18.10
{5}
7000 м н/о +11.1 +9.9 92 1022.7 1015.6
01 18.10
{2}
6000 м н/о +11.7 +10.8 94 1023.0 1015.7
02 18.10 СВ 2
{4}
6000 м н/о +12.3 +11.0 92 +11 +11 1023.1 1015.8
03 18.10
{4}
4500 м дымка н/о +11.1 +10.1 94 1023.1 1015.8
04 18.10
{3}
3100 м дымка н/о +10.6 +9.9 95 1023.3 1016.1
05 18.10 СВ 2
{3}
2500 м дымка н/о +10.0 +9.5 97 +8 +8 1023.5 1016.2
06 18.10 СВ 2
{4}
1800 м дымка н/о +9.5 +9.1 97 +8 +8 1023.7 1016.5 +9.4
07 18.10 СВ 2
{3}
2100 м дымка н/о +10.1 +9.9 99 +8 +8 1024.0 1016.7
08 18.10 СВ 3
{5}
4300 м дымка н/о +12.1 +11.2 94 +10 +10 1024.2 1017.1
09 18.10 СВ 5
{7}
15 км н/о +14.4 +11.3 82 +13 +13 1024.5 1017.3
10 18.10 С 5
{9}
11 км н/о +14.2 +11.4 83 +12 +12 1025.0 1017.7

 

Местоположение метеостанции Chievres (Бельгия): широта 50.57 долгота 3.83 высота над уровнем моря 63 м.

В архиве по умолчанию представлена погода в Chievres за последнюю неделю. Архивные данные за месяц целиком и за предыдущие месяцы, начиная с января 2011 года, Вы можете получить, выбрав интересующий диапазон дат из раскрывающегося списка и нажав кнопку "Ввод!".


*Определитесь, кто Вы:
робот инопланетянин человек

Внимание! Время в таблицах - всемирное. Для получения местного времени необходимо прибавить поправку, которая в Chievres равна 1 ч.

Смотрите также архив погоды в соседних городах и на ближайших метеорологических станциях:

Погода в Semmerzake (Бельгия) (42 км)
Погода в Uccle (Бельгия) (45 км)
Погода в Charleroi (Бельгия) (45 км)
Погода в Melle (Бельгия) (46 км)
Погода в Lille (Франция) (52 км)
Погода в Ernage (Бельгия) (61 км)
Погода в Bruxelles (Бельгия) (61 км)
Погода в Beitem (Бельгия) (62 км)
Погода в Gent (Бельгия) (68 км)
Погода в Beauvechain (Бельгия) (69 км)

Пояснения к столбцам:

Ветер - указаны скорость ветра в м/с - средняя за 10 мин, порывы в срок и между сроками (в фигурных скобках) и направление, откуда дует ветер: С - северный, СВ - северо-восточный, В - восточный, ЮВ - юго-восточный, Ю - южный, ЮЗ - юго-западный, З - западный, СЗ - северо-западный.
Видимость - горизонтальная дальность видимости в метрах или километрах. При видимости от 1 до 10 км при отсутствии осадков обычно наблюдается дымка, при ухудшении видимости до 1 км и менее - туман. В сухую погоду видимость может ухудшаться дымом, пылью или мглою.
Явления - указаны атмосферные явления, наблюдавшиеся в срок или в последний час перед сроком; фигурными скобками обозначены явления, наблюдавшиеся между сроками (за 1-3 часа до срока); квадратными скобками обозначены град или гололедные отложения с указанием их диаметра в мм.
Облачность - указаны через наклонную черту общая и нижняя облачность в баллах и высота нижней границы облаков в метрах; квадратными скобками обозначены формы облаков: Ci - перистые, Cs - перисто-слоистые, Cc - перисто-кучевые, Ac - высококучевые, As - высокослоистые, Sc - слоисто-кучевые, Ns - слоисто-дождевые, Cu - кучевые, Cb - кучево-дождевые. Подробнее классификацию облаков см. в Атласе облаков (PDF).
T - Температура воздуха - температура, измеренная на высоте 2 м над землей.
Td - Температура точки росы - температура, при понижении до которой содержащийся в воздухе водяной пар достигнет насыщения.
f - Относительная влажность воздуха - влажноcть воздуха, измеренная на высоте 2 м над землей.
Te - Эффективная температура - температура, которую ощущает одетый по сезону человек в тени. Характеристика душности погоды. При расчете учитывается влияние влажности воздуха и скорости ветра на теплоощущения человека.
Tes - Эффективная температура на солнце - температура, которую ощущает человек, с поправкой на солнечный нагрев. Характеристика знойности погоды. Зависит от высоты солнца над горизонтом, облачности и скорости ветра. Ночью, в пасмурную погоду, а также при ветре 12 м/с и более поправка равна нулю.
P - Атмосферное давление - приведенное к уровню моря атмосферное давление.
Po - Атмосферное давление - измеренное на уровне метеостанции атмосферное давление.
Tmin - Минимальная температура - минимум температуры воздуха на высоте 2 м над землей.
Tmax - Максимальная температура - максимум температуры воздуха на высоте 2 м над землей.
R - Количество осадков - Количество выпавших осадков за период времени, мм. При наведении курсора мыши на число - период времени, за который выпало указанное количество осадков.
R24 - Количество осадков - Количество выпавших осадков за 24 часа, мм.
S - Снежный покров - Высота снежного покрова, см. При наведении курсора мыши на число - состояние снежного покрова и степень покрытия местности в баллах.